Hourly Weather Barnab

Today, 19 June, Saturday

Time Temperature Precipitation Wind Pressure Humidity
00:00 +14°C° 0 mm 1 mps 616 mmHg 70%
01:00 +13°C° 0 mm 2 mps 616 mmHg 69%
02:00 +13°C° 0 mm 2 mps 616 mmHg 68%
03:00 +13°C° 0 mm 2 mps 616 mmHg 66%
04:00 +14°C° 0 mm 2 mps 617 mmHg 62%
05:00 +16°C° 0 mm 2 mps 617 mmHg 58%
06:00 +18°C° 0 mm 1 mps 618 mmHg 54%
07:00 +19°C° 0 mm 2 mps 618 mmHg 48%
08:00 +20°C° 0 mm 2 mps 618 mmHg 42%
09:00 +23°C° 0 mm 2 mps 619 mmHg 36%
10:00 +24°C° 0 mm 2 mps 619 mmHg 36%
11:00 +24°C° 0 mm 2 mps 619 mmHg 36%
12:00 +25°C° 0 mm 2 mps 619 mmHg 36%
13:00 +25°C° 0 mm 2 mps 619 mmHg 36%
14:00 +26°C° 0 mm 2 mps 619 mmHg 37%
15:00 +26°C° 0 mm 2 mps 619 mmHg 38%
16:00 +25°C° 0 mm 2 mps 618 mmHg 41%
17:00 +24°C° 0 mm 2 mps 618 mmHg 44%
18:00 +23°C° 0 mm 2 mps 618 mmHg 47%
19:00 +20°C° 0 mm 2 mps 618 mmHg 49%
20:00 +18°C° 0 mm 2 mps 618 mmHg 50%
21:00 +16°C° 0 mm 2 mps 617 mmHg 51%
22:00 +16°C° 0 mm 2 mps 617 mmHg 52%
23:00 +15°C° 0 mm 2 mps 617 mmHg 53%

Tomorrow, 20 June, Sunday

Time Temperature Precipitation Wind Pressure Humidity
00:00 +15°C° 0 mm 2 mps 616 mmHg 54%
01:00 +15°C° 0 mm 2 mps 616 mmHg 50%
02:00 +15°C° 0 mm 2 mps 616 mmHg 47%
03:00 +15°C° 0 mm 2 mps 616 mmHg 43%
04:00 +16°C° 0 mm 2 mps 617 mmHg 43%
05:00 +17°C° 0 mm 2 mps 617 mmHg 43%
06:00 +18°C° 0 mm 2 mps 617 mmHg 43%
07:00 +20°C° 0 mm 3 mps 618 mmHg 39%
08:00 +21°C° 0 mm 3 mps 618 mmHg 36%
09:00 +24°C° 0 mm 3 mps 619 mmHg 32%
10:00 +24°C° 0 mm 3 mps 619 mmHg 32%
11:00 +25°C° 0 mm 3 mps 619 mmHg 32%
12:00 +26°C° 0 mm 3 mps 619 mmHg 31%
13:00 +26°C° 0 mm 3 mps 619 mmHg 32%
14:00 +26°C° 0 mm 3 mps 619 mmHg 34%
15:00 +26°C° 0 mm 3 mps 619 mmHg 35%
16:00 +25°C° 0 mm 3 mps 619 mmHg 39%
17:00 +24°C° 0 mm 3 mps 619 mmHg 43%
18:00 +24°C° 0 mm 3 mps 618 mmHg 47%
19:00 +20°C° 0 mm 2 mps 618 mmHg 50%
20:00 +18°C° 0 mm 2 mps 618 mmHg 53%
21:00 +16°C° 0 mm 2 mps 617 mmHg 57%
22:00 +16°C° 0 mm 2 mps 617 mmHg 57%
23:00 +15°C° 0 mm 2 mps 617 mmHg 58%

Day after tomorrow, 21 June, Monday

Time Temperature Precipitation Wind Pressure Humidity
00:00 +15°C° 0 mm 2 mps 617 mmHg 59%
01:00 +15°C° 0 mm 2 mps 617 mmHg 57%
02:00 +14°C° 0 mm 2 mps 616 mmHg 55%
03:00 +14°C° 0 mm 2 mps 616 mmHg 53%
04:00 +15°C° 0 mm 2 mps 617 mmHg 51%
05:00 +17°C° 0 mm 2 mps 617 mmHg 49%
06:00 +18°C° 0 mm 2 mps 618 mmHg 47%
07:00 +20°C° 0 mm 2 mps 618 mmHg 43%
08:00 +21°C° 0 mm 2 mps 618 mmHg 38%
09:00 +24°C° 0 mm 3 mps 619 mmHg 34%
10:00 +25°C° 0 mm 3 mps 619 mmHg 34%
11:00 +25°C° 0 mm 3 mps 619 mmHg 34%
12:00 +26°C° 0 mm 3 mps 619 mmHg 34%
13:00 +26°C° 0 mm 3 mps 619 mmHg 34%
14:00 +26°C° 0 mm 3 mps 619 mmHg 34%
15:00 +26°C° 0 mm 3 mps 619 mmHg 34%
16:00 +25°C° 0 mm 3 mps 619 mmHg 37%
17:00 +24°C° 0 mm 3 mps 619 mmHg 40%
18:00 +24°C° 0 mm 3 mps 619 mmHg 43%
19:00 +20°C° 0 mm 2 mps 618 mmHg 45%
20:00 +18°C° 0 mm 2 mps 618 mmHg 46%
21:00 +16°C° 0 mm 2 mps 617 mmHg 47%
22:00 +15°C° 0 mm 2 mps 617 mmHg 46%
23:00 +15°C° 0 mm 2 mps 617 mmHg 45%

22 June, Tuesday

Time Temperature Precipitation Wind Pressure Humidity
00:00 +15°C° 0 mm 2 mps 616 mmHg 44%
01:00 +15°C° 0 mm 2 mps 616 mmHg 44%
02:00 +14°C° 0 mm 2 mps 616 mmHg 44%
03:00 +14°C° 0 mm 2 mps 616 mmHg 43%
04:00 +16°C° 0 mm 2 mps 617 mmHg 44%
05:00 +17°C° 0 mm 2 mps 617 mmHg 44%
06:00 +18°C° 0 mm 2 mps 618 mmHg 44%
07:00 +20°C° 0 mm 2 mps 618 mmHg 40%
08:00 +23°C° 0 mm 2 mps 618 mmHg 37%
09:00 +25°C° 0 mm 2 mps 619 mmHg 33%
10:00 +25°C° 0 mm 2 mps 619 mmHg 33%
11:00 +26°C° 0 mm 3 mps 619 mmHg 33%
12:00 +27°C° 0 mm 3 mps 620 mmHg 33%
13:00 +27°C° 0 mm 3 mps 620 mmHg 34%
14:00 +27°C° 0 mm 3 mps 620 mmHg 34%
15:00 +27°C° 0 mm 2 mps 620 mmHg 34%
16:00 +26°C° 0 mm 2 mps 619 mmHg 38%
17:00 +25°C° 0 mm 2 mps 619 mmHg 42%
18:00 +24°C° 0 mm 2 mps 619 mmHg 45%
19:00 +21°C° 0 mm 2 mps 619 mmHg 45%
20:00 +19°C° 0 mm 2 mps 618 mmHg 45%
21:00 +17°C° 0 mm 2 mps 618 mmHg 45%
22:00 +16°C° 0 mm 2 mps 618 mmHg 43%
23:00 +16°C° 0 mm 2 mps 617 mmHg 42%

23 June, Wednesday

Time Temperature Precipitation Wind Pressure Humidity
00:00 +15°C° 0 mm 2 mps 617 mmHg 41%
01:00 +15°C° 0 mm 2 mps 617 mmHg 40%
02:00 +15°C° 0 mm 2 mps 617 mmHg 39%
03:00 +15°C° 0 mm 2 mps 617 mmHg 39%
04:00 +16°C° 0 mm 2 mps 617 mmHg 40%
05:00 +17°C° 0 mm 2 mps 618 mmHg 42%
06:00 +19°C° 0 mm 2 mps 618 mmHg 44%
07:00 +21°C° 0 mm 2 mps 619 mmHg 39%
08:00 +23°C° 0 mm 2 mps 619 mmHg 35%
09:00 +25°C° 0 mm 2 mps 619 mmHg 30%
10:00 +26°C° 0 mm 3 mps 619 mmHg 30%
11:00 +27°C° 0 mm 3 mps 620 mmHg 30%
12:00 +27°C° 0 mm 3 mps 620 mmHg 30%
13:00 +27°C° 0 mm 3 mps 620 mmHg 31%
14:00 +27°C° 0 mm 3 mps 620 mmHg 31%
15:00 +27°C° 0 mm 3 mps 620 mmHg 31%
16:00 +26°C° 0 mm 3 mps 620 mmHg 35%
17:00 +26°C° 0 mm 2 mps 619 mmHg 39%
18:00 +25°C° 0 mm 2 mps 619 mmHg 42%
19:00 +21°C° 0 mm 2 mps 619 mmHg 44%
20:00 +19°C° 0 mm 2 mps 618 mmHg 45%
21:00 +17°C° 0 mm 2 mps 618 mmHg 46%
22:00 +16°C° 0 mm 2 mps 618 mmHg 46%
23:00 +16°C° 0 mm 2 mps 617 mmHg 46%

24 June, Thursday

Time Temperature Precipitation Wind Pressure Humidity
00:00 +15°C° 0 mm 2 mps 617 mmHg 45%
01:00 +15°C° 0 mm 2 mps 617 mmHg 46%
02:00 +15°C° 0 mm 1 mps 617 mmHg 46%
03:00 +15°C° 0 mm 1 mps 617 mmHg 46%
04:00 +16°C° 0 mm 1 mps 617 mmHg 46%
05:00 +18°C° 0 mm 1 mps 618 mmHg 46%
06:00 +20°C° 0 mm 1 mps 618 mmHg 47%
07:00 +20°C° 0 mm 2 mps 619 mmHg 43%
08:00 +23°C° 0 mm 2 mps 619 mmHg 40%
09:00 +25°C° 0 mm 2 mps 620 mmHg 37%
10:00 +26°C° 0 mm 2 mps 620 mmHg 36%
11:00 +26°C° 0 mm 3 mps 620 mmHg 35%
12:00 +27°C° 0 mm 3 mps 620 mmHg 34%
13:00 +27°C° 0 mm 3 mps 620 mmHg 34%
14:00 +27°C° 0 mm 3 mps 620 mmHg 33%
15:00 +27°C° 0 mm 3 mps 620 mmHg 33%
16:00 +26°C° 0 mm 2 mps 620 mmHg 37%
17:00 +25°C° 0 mm 2 mps 620 mmHg 40%
18:00 +24°C° 0 mm 2 mps 619 mmHg 44%
19:00 +21°C° 0 mm 2 mps 619 mmHg 45%
20:00 +19°C° 0 mm 2 mps 619 mmHg 47%
21:00 +17°C° 0 mm 2 mps 618 mmHg 48%
22:00 +16°C° 0 mm 2 mps 618 mmHg 48%
23:00 +16°C° 0 mm 2 mps 618 mmHg 47%
Show more